Starlink 2439

operational
NORAD ID: 48104 Int'l Des: 2021-027 Owner: SPXS Country: US Constellation: starlink
LEOCIRCULARSTARLINK_TYPE

About Starlink 2439

Description loading...

Live Position

Loading 3D Globe...

Upcoming Passes

Altitude History

Altitude vs Time

uPlot chart will show altitude changes over time

Two-Line Element Set

1 48104U 21027N 25296.62762417 .00000742 00000-0 68680-4 0 9993
2 48104 53.0550 51.9148 0001438 107.8986 252.2159 15.06402075251970
Epoch: Oct 23, 2025 • Age: 23 hours

Current Status

Altitude 566.0 km
Velocity 7.58 km/s
Sub-Earth Point -51.68°S, 47.96°E
Launch Date Apr 7, 2021
Age 4.5 years
Type internet

Technical Details

Classification Payload
Mass 260.00 kg
Dry Mass 248.00 kg
Total Mass 260.00 kg
Length 0.20 m
Diameter 2.80 m
Span 9.00 m
Shape Box + pan
Manufacturer SPXS
Bus Type Starlink
Phase Status In Orbit
Owner/State SPXS/US

Large Constellations

Loading constellations...